Погода в Раздольном

Россия / Республика Крым     45˚46′12″N   33˚29′16″E
темп.,
°C
ветер,
м/с
пор.,
м/с
влажн.,
%
обл.,
%
осадки,
мм/ч
давл.,
гПа
погр.,
м
16 января, сб
сб1600:00−1˚зсз466998 0.0 1016685
03:00−4˚ссз466899 0.1 1017622
06:00−4˚ссв226683 0.0 1016334
09:00−4˚вюв226672 0.0 1017176
12:00−2˚вюв225873 0.0 1017485
15:00всв335476 0.0 1015765
18:00−2˚всв586895 0.0 1014333
21:00−3˚св586998 0.0 1013461
17 января, вс
вс1700:00−2˚св6963100 0.0 1013671
03:00−3˚ссв6864100 0.0 1012726
06:00−3˚ссв6859100 0.0 1011704
09:00−4˚ссв6770100 0.0 1012615
12:00−4˚ссв6770100 0.0 1013590
15:00−4˚с6767100 0.0 1012661
18:00−5˚ссв5673100 0.0 1013693
21:00−6˚с5577100 0.1 1014643
18 января, пн
пн1800:00−7˚с4578100 0.1 1015663
03:00−8˚ссз3477100 0.1 1016617
06:00−8˚ссз347185 0.0 1016538
09:00−9˚с237245 0.0 1018383
12:00−7˚с226070 0.0 1018525
15:00−6˚ссз336085 0.0 1018529
18:00−6˚сз2564100 0.0 1019702
21:00−6˚ссз4570100 0.0 1020697
19 января, вт
вт1900:00−7˚с236891 0.0 1020239
03:00−7˚ссз237392 0.0 1020493
06:00−7˚сз248993 0.3 1021334
09:00−7˚сз567797 0.7 1022733
12:00−7˚сз5671100 0.1 1023736
15:00−6˚сз466396 0.1 1022759
18:00−7˚сз356839 0.0 1023164
21:00−7˚ссз237137 0.0 102575
20 января, ср
ср2000:00−7˚ссв127798 0.0 102534
03:00−8˚ююв227878 0.0 102635
06:00−8˚ююв22813 0.0 102630
09:00−7˚ююв23812 0.0 102775
12:00−2˚ю34670 0.0 1027386
15:00+1˚ююз356310 0.0 1026975
18:00−2˚ююв478083 0.0 1026147
21:00−2˚ююв5108077 0.0 1027269